SCP
0 0 0 0 0 0 0 0 0 0 0 0 0 0 0 0 0 0 0 0 0 0 0 0 0 0 0 0 0 0 0 0 0 0 0 0 0 0
0 0 0 0 0 0 0 0 0 0 0 0 0 0 0 0 0 0 0 0 0 0 0 0 0 0 0 0 0 0 0 0 0 0 0 0 0 0
0 0 0 0 0 0 0 0 0 0 0 0 0 0 0 0 0 0 0 0 0 0 0 0 0 0 0 0 0 0 0 0 0 0 0 0 0 0
0 0 0 0 0 0 0 0 0 0 0 0 0 0 0 0 0 0 0 0 0 0 0 0 0 0 0 0 0 0 0 0 0 0 0 0 0 0
0 0 0 0 0 0 0 0 0 0 0 0 0 -0 0 0 0 0 0 0 0 0 0 0 0 0 0 0 0 0 0 0 0 0 0 0 0 0
0 0 0 0 0 0 0 0 0 0 0 0 0 0 0 0 0 0 0 0 0 0 0 0 0 0 0 0 0 0 0 0 0 0 0 0 0 0
0 0 0 0 0 0 0 0 0 0 0 0 0 0 0 0 0 0 0 0 0 0 0 0 0 0 0 0 0 0 0 0 0 0 0 0 0 0
0 0 0 0 0 0 0 0 0 0 0 0 0 0 0 0 0 0 0 0 0 0 0 0 0 0 0 0 0 0 0 0 0 0 0 0 0 0
0 0 0 0 0 0 0 0 0 0 0 0 0 0 0 0 0 0 0 0 0 0 0 0 0 0 0 0 0 0 0 0 0 0 0 0 0 0
0 0 0 0 0 0 0 0 0 0 0 0 0 0 0 0 0 0 0 0 0 0 0 0 0 0 0 0 0 0 0 0 0 0 0 0 0 0
0 0 0 0 0 0 0 0 0 0 0 0 0 0 0 0 0 0 0 0 0 0 0 0 0 0 0 0 0 0 0 0 0 0 0 0 0 0
0 0 0 0 0 0 0 0 0 0 0 0 0 0 0 0 0 0 0 0 0 0 0 0 0 0 0 0 0 0 0 0 0 0 0 0 0 0
0 0 0 0 0 0 0 0 0 0 0 0 0 0 0 0 0 0 0 0 0 0 0 0 0 0 0 0 0 0 0 0 0 0 0 0 0 0
0 0 0 0 0 0 0 0 0 0 0 0 0 0 0 0 0 0 0 0 0 0 0 0 0 0 0 0 0 0 0 0 0 0 0 0 0 0
0 0 0 0 0 0 0 0 0 0 0 0 0 0 0 0 0 0 0 0 0 0 0 0 0 0 0 0 0 0 0 0 0 0 0 0 0 0
0 0 0 0 0 0 0 0 0 0 0 0 0 0 0 0 0 0 0 0 0 0 0 0 0 0 0 0 0 0 0 0 0 0 0 0 0 0
0 0 0 0 0 0 0 0 0 0 0 0 0 0 0 0 0 0 0 0 0 0 0 0 0 0 0 0 0 0 0 0 0 0 0 0 0 0
0 0 0 0 0 0 0 0 0 0 0 0 0 0 0 0 0 0 0 0 0 0 0 0 0 0 0 0 0 0 0 0 0 0 0 0 0 0
0 0 0 0 0 0 0 0 0 0 0 0 0 0 0 0 0 0 0 0 0 0 0 0 0 0 0 0 0 0 0 0 0 0 0 0 0 0
0 0 0 0 0 0 0 0 0 0 0 0 0 0 0 0 0 0 0 0 0 0 0 0 0 0 0 0 0 0 0 0 0 0 0 0 0 0
0 0 0 0 0 0 0 0 0 0 0 0 0 0 0 0 0 0 0 0 0 0 0 0 0 0 0 0 0 0 0 0 0 0 0 0 0 0
0 0 0 0 0 0 0 0 0 0 0 0 0 0 0 0 0 0 0 0 0 0 0 0 0 0 0 0 0 0 0 0 0 0 0 0 0 0
0 0 0 0 0 0 0 0 0 0 0 0 0 0 0 0 0 0 0 0 0 0 0 0 0 0 0 0 0 0 0 0 0 0 0 0 0 0
Wind_Speed
5 6 5 4 4 4 4 4 4 5 5 4 3 3 3 3 3 5 5 5 7 7 8 8 8 8 9 9 9 9 9 9 10 10 10 10 11 10
5 6 5 4 4 4 4 4 5 5 5 3 3 3 3 4 5 6 6 7 8 8 8 9 9 9 9 9 9 9 10 10 10 11 11 11 11 11
6 7 7 6 5 4 4 4 5 5 6 5 4 4 5 6 5 6 6 6 5 8 9 10 10 10 10 10 10 10 10 11 11 11 11 11 12 12
7 7 7 5 7 5 5 5 5 5 6 7 5 5 6 6 6 7 6 5 6 7 10 11 11 11 10 10 10 10 11 11 11 11 12 12 12 13
7 7 7 7 7 6 6 6 5 5 5 6 6 5 5 5 6 6 7 6 6 6 8 10 10 11 11 11 11 11 11 11 11 11 12 12 12 13
7 7 7 7 8 7 6 6 6 6 6 6 6 5 4 5 5 5 5 5 5 5 6 7 9 11 12 12 11 11 11 11 11 12 12 13 13 13
6 6 7 8 8 7 6 6 6 6 5 6 6 5 5 4 5 4 6 5 6 5 5 5 6 6 7 9 10 11 11 12 12 12 13 13 13 13
7 6 7 8 8 9 10 9 8 8 7 6 6 7 7 6 5 5 5 5 5 3 5 6 5 6 6 6 8 10 12 12 13 13 13 13 14 14
7 6 5 6 7 6 7 8 9 10 10 8 8 8 8 6 6 7 6 7 7 5 5 7 6 7 6 6 10 12 12 13 13 13 14 14 15 14
6 6 7 7 6 6 6 6 7 7 8 8 8 8 7 6 7 7 7 8 8 6 5 7 6 6 6 6 9 11 12 13 13 14 14 15 15 15
5 6 7 7 8 9 7 7 7 6 7 9 10 10 10 10 8 6 6 6 7 6 5 5 5 6 6 7 6 9 11 12 13 14 14 14 14 14
4 5 8 8 9 9 7 6 7 6 5 6 7 9 8 9 10 8 7 7 6 5 4 4 4 4 5 4 4 4 6 10 12 13 14 14 13 9
4 4 4 8 8 9 8 6 7 7 6 6 6 6 6 5 6 7 7 7 7 6 4 4 4 5 5 5 5 5 6 6 7 8 11 13 13 11
4 4 4 6 7 8 7 6 8 7 5 5 5 5 5 5 5 6 7 7 7 8 7 7 6 6 6 7 6 5 5 6 6 7 6 9 11 12
3 5 6 6 6 6 6 7 6 4 4 4 4 4 4 4 4 4 5 6 7 7 7 8 8 7 7 7 7 7 7 6 6 6 6 6 6 6
2 3 4 5 4 4 4 4 4 4 4 4 4 4 4 4 4 4 4 4 5 5 6 7 8 9 8 8 7 7 7 6 5 6 6 7 6 6
2 2 2 2 2 2 2 2 3 3 3 3 4 4 4 4 4 4 4 4 5 6 5 4 5 6 8 7 7 7 7 7 6 6 6 7 7 6
2 2 2 2 2 2 3 3 3 3 3 3 4 4 4 4 4 4 4 5 5 5 5 5 4 4 5 6 7 8 7 6 6 6 6 7 8 7
2 2 2 2 3 3 3 3 3 3 3 4 4 4 4 4 4 4 4 5 5 5 5 5 4 5 6 7 5 5 6 6 6 6 6 7 8 7
2 2 3 3 3 3 3 3 3 3 4 4 4 4 4 4 4 4 4 5 5 5 6 5 5 5 6 6 6 5 6 6 6 6 6 6 7 9
2 3 3 3 3 3 3 3 4 4 4 4 4 5 4 5 5 5 5 7 6 6 6 6 5 6 5 4 5 6 5 6 7 6 7 6 7 7
3 3 3 3 3 4 4 4 4 4 4 4 4 4 4 5 5 6 6 5 5 6 6 5 5 4 4 5 6 7 7 6 6 8 9 9 6 6
3 3 3 4 4 4 4 4 5 4 4 4 4 4 4 5 5 5 5 5 5 6 6 5 4 4 5 5 6 6 7 7 6 5 5 7 10 13
Wind_Direction
231 233 232 230 235 237 234 233 239 247 247 235 228 219 240 250 257 255 260 269 271 274 280 285 286 287 288 287 287 288 291 289 291 288 285 286 281 278
230 230 232 233 233 231 229 236 244 250 254 249 254 259 254 258 268 262 261 268 261 266 273 278 280 281 283 283 283 285 287 286 285 287 282 283 283 276
233 230 232 234 234 229 224 228 235 241 252 257 253 261 260 259 260 264 259 259 257 261 268 272 275 277 276 277 278 279 282 283 282 284 283 280 283 280
233 232 235 234 233 229 226 228 234 238 246 257 258 255 259 266 264 267 260 256 259 263 265 269 271 272 274 275 276 276 277 278 278 279 280 277 279 281
236 235 237 233 231 230 231 234 236 241 245 251 259 260 262 263 266 267 263 257 260 260 260 261 262 267 271 271 270 273 274 274 275 276 280 277 278 280
240 239 241 238 234 233 234 236 238 241 241 245 253 256 258 263 264 266 269 257 261 262 258 260 262 264 264 265 265 268 270 269 271 273 277 277 277 278
240 240 244 243 243 242 241 238 236 240 242 245 250 253 250 252 255 262 272 271 267 260 263 258 258 258 257 255 257 261 264 266 269 273 275 276 275 276
239 239 242 239 237 242 247 249 246 243 242 245 249 251 253 256 261 259 268 274 267 257 270 270 264 262 261 260 262 265 265 266 268 271 274 275 274 273
239 240 243 240 237 238 242 246 251 251 247 248 252 256 261 259 262 262 259 268 272 276 273 271 265 265 265 261 263 263 264 266 268 271 271 272 272 272
239 238 241 240 237 237 240 243 247 249 247 245 251 259 263 265 260 263 268 272 275 270 257 267 270 272 273 265 256 258 264 267 270 272 272 272 273 271
243 238 238 239 239 242 240 240 248 252 250 248 255 262 269 272 269 266 260 260 268 268 253 258 272 283 278 270 261 257 263 266 270 273 273 272 272 272
246 240 237 240 242 243 241 243 249 254 254 256 254 255 256 256 254 247 247 251 260 264 243 244 263 283 282 265 269 271 267 269 272 273 274 274 274 270
245 246 241 238 245 249 249 250 255 264 260 256 257 256 255 251 248 245 243 244 250 253 255 258 259 260 262 278 280 275 272 276 276 272 269 269 269 265
247 251 251 248 248 252 252 257 262 264 257 257 257 257 255 255 255 256 254 255 256 260 258 258 258 253 262 270 275 277 276 276 276 275 274 272 268 265
256 251 252 252 252 251 251 257 259 259 258 257 261 269 271 268 264 261 259 259 262 260 258 256 255 256 254 260 269 273 283 281 271 272 273 270 269 271
266 258 253 251 250 254 256 253 253 257 260 262 268 272 274 268 261 260 263 263 265 265 256 253 255 256 256 258 262 268 270 269 272 275 277 275 271 267
268 263 260 254 251 258 265 268 265 260 259 262 266 269 268 267 264 260 259 263 262 267 269 261 257 259 260 261 262 262 267 271 270 275 278 275 272 268
267 247 248 252 258 263 265 267 267 265 266 267 266 267 266 265 265 262 259 258 261 267 272 271 269 270 265 257 245 260 263 268 275 276 277 275 277 276
261 252 254 258 261 261 265 268 270 269 266 262 263 263 263 262 261 262 259 260 264 267 270 271 265 261 265 271 266 240 264 277 278 276 276 276 277 283
260 261 263 263 263 263 264 267 271 269 263 261 260 260 260 261 259 263 262 261 266 270 273 271 262 258 262 273 283 281 268 270 275 277 282 284 282 284
266 265 266 266 263 263 265 267 269 270 268 266 262 261 261 263 261 260 261 264 265 264 267 270 275 280 278 277 273 276 282 273 271 273 282 284 288 289
269 269 268 268 266 262 260 260 262 265 265 261 262 261 260 260 259 259 261 262 262 263 268 275 281 278 267 261 269 281 291 295 286 278 273 271 275 280
276 276 274 271 267 264 260 259 261 264 264 263 263 264 263 263 262 260 263 261 263 266 269 274 278 275 271 268 271 276 285 292 295 296 290 292 285 279